Guthrie, OK

3:42 PM CST on December 16, 2017 (GMT -0600)
Guthrie Municipal

Weather History for KGOK - March, 2014

Change the Weather History Date:

Monday, March 17, 2014

  Actual Average Record
Temperature  
Mean Temperature 42 °F -  
Max Temperature 61 °F 65 °F 89 °F (2011)
Min Temperature 23 °F 39 °F 23 °F (2014)
Degree Days  
Heating Degree Days 24    
Moisture  
Dew Point 25 °F    
Average Humidity 56    
Maximum Humidity 88    
Minimum Humidity 27    
Precipitation  
Precipitation 0.00 in - - ()
Sea Level Pressure  
Sea Level Pressure 29.85 in    
Wind  
Wind Speed 5 mph (South)    
Max Wind Speed 17 mph    
Max Gust Speed 26 mph    
Visibility 10 miles    
Events      
Averages and records for this station are not official NWS values.
T = Trace of Precipitation, MM = Missing Value Source: NWS Daily Summary

Daily Weather History Graph

Daily Weather History Graph

Search for Another Location

Airport or City:

Trip Planner

Search our weather history database for the weather conditions in past years. The results will help you decide how hot, cold, wet, or windy it might be!

Date:

Astronomy

Mar. 17, 2014 Rise Set
Actual Time 7:37 AM CDT 7:38 PM CDT
Civil Twilight 7:12 AM CDT 8:04 PM CDT
Nautical Twilight 6:42 AM CDT 8:34 PM CDT
Astronomical Twilight 6:12 AM CDT 9:04 PM CDT
Moon 8:53 PM CDT (3/17) 7:56 AM CDT (3/17)
Length of Visible Light 12h 52m
Length of Day
12h 01m
Full, 99% of the Moon is Illuminated
Mar 17
Full
Mar 23
Last Quarter
Mar 30
New
Apr 7
First Quarter
Apr 15
Full

Hourly Weather History & Observations

Time (CDT) Temp. Windchill Dew Point Humidity Pressure Visibility Wind Dir Wind Speed Gust Speed Precip Events Conditions
12:53 AM 30.9 °F - 24.1 °F 76% 30.14 in 10.0 mi Calm Calm - N/A   Clear
1:53 AM 26.1 °F - 21.9 °F 84% 30.12 in 10.0 mi Calm Calm - N/A   Clear
2:53 AM 28.0 °F - 23.0 °F 81% 30.09 in 10.0 mi Calm Calm - N/A   Clear
3:53 AM 26.1 °F - 21.9 °F 84% 30.08 in 10.0 mi Calm Calm - N/A   Clear
4:53 AM 23.0 °F 17.0 °F 19.9 °F 88% 30.04 in 8.0 mi SE 4.6 mph - N/A   Clear
5:53 AM 25.0 °F - 21.0 °F 85% 30.02 in 9.0 mi Calm Calm - N/A   Clear
6:53 AM 23.0 °F - 19.9 °F 88% 30.01 in 8.0 mi Calm Calm - N/A   Clear
7:53 AM 24.1 °F - 19.9 °F 84% 30.00 in 7.0 mi Calm Calm - N/A   Clear
8:53 AM 28.9 °F - 25.0 °F 85% 29.98 in 7.0 mi Calm Calm - N/A   Clear
9:53 AM 36.0 °F 32.1 °F 28.0 °F 73% 29.98 in 9.0 mi SW 4.6 mph - N/A   Clear
10:53 AM 42.1 °F 40.2 °F 26.1 °F 53% 29.95 in 10.0 mi SSW 3.5 mph - N/A   Clear
11:53 AM 48.9 °F - 25.0 °F 39% 29.91 in 10.0 mi SW 6.9 mph - N/A   Clear
12:53 PM 53.1 °F - 25.0 °F 34% 29.85 in 10.0 mi SW 8.1 mph - N/A   Clear
1:53 PM 55.9 °F - 26.1 °F 32% 29.82 in 10.0 mi South 11.5 mph 16.1 mph N/A   Clear
2:53 PM 59.0 °F - 25.0 °F 27% 29.76 in 10.0 mi South 12.7 mph - N/A   Clear
3:53 PM 60.1 °F - 26.1 °F 27% 29.73 in 10.0 mi South 15.0 mph 21.9 mph N/A   Clear
4:53 PM 60.1 °F - 27.0 °F 28% 29.69 in 10.0 mi South 15.0 mph - N/A   Clear
5:53 PM 57.9 °F - 28.0 °F 32% 29.67 in 10.0 mi South 15.0 mph - N/A   Clear
6:53 PM 57.0 °F - 28.0 °F 33% 29.66 in 10.0 mi South 11.5 mph - N/A   Clear
7:53 PM 54.0 °F - 28.0 °F 37% 29.66 in 10.0 mi South 12.7 mph - N/A   Clear
8:53 PM 52.0 °F - 28.9 °F 41% 29.63 in 10.0 mi South 12.7 mph 18.4 mph N/A   Clear
9:53 PM 52.0 °F - 28.9 °F 41% 29.59 in 10.0 mi SSE 17.3 mph 24.2 mph N/A   Clear
10:53 PM 51.1 °F - 30.0 °F 44% 29.57 in 10.0 mi SSE 13.8 mph 25.3 mph N/A   Clear
11:53 PM 51.1 °F - 28.0 °F 41% 29.53 in 10.0 mi SSE 16.1 mph 26.5 mph N/A   Clear